Regional Weather Roundup
Issued by NWS Newport/Morehead, NC

Current Version | Previous Version | Text Only | Print | Product List | Glossary Off
Versions: 1 2 3 4 5 6 7 8 9 10 11 12 13 14 15 16 17 18 19 20 21 22 23 24 25 26 27 28 29 30 31 32 33 34 35 36 37 38 39 40 41 42 43 44 45 46 47 48 49 50
000 ASUS42 KMHX 172013 RWRMHX WEATHER ROUNDUP FOR EASTERN NORTH CAROLINA NATIONAL WEATHER SERVICE NEWPORT/MOREHEAD CITY NC 400 PM EDT TUE OCT 17 2017 NOTE: "FAIR" INDICATES FEW OR NO CLOUDS BELOW 12,000 FEET WITH NO SIGNIFICANT WEATHER AND/OR OBSTRUCTIONS TO VISIBILITY NCZ015>017-031-032-045>047-102-103-172100- NORTH COAST CITY SKY/WX TMP DP RH WIND PRES REMARKS EDENTON SUNNY 64 42 44 N6 30.29S ELIZABETH CITY MOSUNNY 61 40 45 NE15 30.29S KITTY HAWK MOCLDY 59 44 57 N7 30.26S MANTEO CLOUDY N/A N/A N/A N17 30.27F $$ NCZ045>047-081-094-103-104-172100- CENTRAL COAST CITY SKY/WX TMP DP RH WIND PRES REMARKS FRISCO CLOUDY 62 49 62 N10G24 30.24S $$ NCZ095-097-098-100-101-172100- SOUTHERN COAST CITY SKY/WX TMP DP RH WIND PRES REMARKS BEAUFORT PTSUNNY 62 43 49 N14G21 30.25S CEDAR ISLAND NOT AVBL JACKSONVILLE CLOUDY 62 45 53 N10 30.26S PINEY ISLAND N/A N/A N/A N/A N16G22 30.26S WILMINGTON N/A 62 45 53 N14 30.26S $$ NCZ011>013-027>030-043-044-078>080-089-090>093-098-172100- COASTAL PLAIN CITY SKY/WX TMP DP RH WIND PRES REMARKS AHOSKIE SUNNY 61 39 43 N8 30.30S CLINTON SUNNY 66 42 41 N7 30.28S ELIZABETHTOWN NOT AVBL GOLDSBORO SUNNY 65 39 38 N10 30.26F GREENVILLE SUNNY 64 39 39 N10 30.29S HAVELOCK CLOUDY 62 43 49 N14 30.27S KENANSVILLE SUNNY 64 41 42 N8 30.27S KINSTON SUNNY 66 37 34 NE7G16 30.27F NEW BERN MOSUNNY 61 42 49 NE10 30.28S RICHLANDS MOSUNNY 64 41 42 NE9 30.27S ROCKY MOUNT SUNNY 64 39 39 N6 30.29F WASHINGTON SUNNY 64 43 45 N9 30.28R WHITEVILLE SUNNY 65 41 40 NE9 30.26S $$ AMZ130-135-150-152-154-156-158-170-250-252-270-ANZ085-086-088-633-658-670-172100- MARINE OBSERVATIONS STATION/POSITION TIME TEMP WIND PRES WAVE SWELL AIR SEA DIR/SP/G HT/PER HT/PER (UTC) (F) (DEG/KT/KT) (MB) (FT/S) (FT/S) CHESAPEAKE LIGHT NOT AVBL 64 E VA BEACH 1950 60 67 20/ 14/ 17 1025.2 6/ 8 5/ 8 DUCK 1948 59 68 20/ 17/ 22 1024.7 2 E DUCK 2000 71 N/A 6/ 7 2/11 OREGON INLET 1942 60 67 10/ 14/ 19 1024.5 13E OREGON INLT 1948 71 N/A 7/ 8 5/ 8 HATTERAS CG 1948 61 69 20/ 21/ 24 1024.0 DIAMOND BUOY 1950 64 81 10/ 19/ 25 1022.9 7/10 5/10 CAPE LOOKOUT 2000 61 20/ 15/ 19 1023.9 BEAUFORT LAB 1948 62 71 10/ 14/ 18 1024.8 30 SE NEW RVR IN 1908 65 40/ 17/ 25 1023.3 30 SE NEW RVR IN NOT AVBL 27 SE WRIGHTSVLE 1908 65 77 60/ 19/ 27 1023.2 5 SE WRIGHTSVLE 1908 63 75 50/ 16/ 29 1024.3 225 S CAPE HAT 1950 76 80 40/ 23/ 31 1016.6 11/10 7/10 41 SE CHARLESTON 2000 69 80 30/ 23/ 31 1021.4 $$

USA.gov is the U.S. government's official web portal to all federal, state and local government web resources and services.